Corlu, Turkey

9:48 PM +03 on May 23, 2018 (GMT +0300)
Corlu Air Base

Weather History for LTBU - October, 2012

Change the Weather History Date:

Saturday, October 6, 2012

  Actual Average (LTBA) Record (LTBA)
Temperature  
Mean Temperature 68 °F -  
Max Temperature 77 °F 71 °F 84 °F (2003)
Min Temperature 60 °F 60 °F 43 °F (2013)
Cooling Degree Days 4    
Growing Degree Days 18 (Base 50)    
Moisture  
Dew Point 61 °F    
Average Humidity 80    
Maximum Humidity 100    
Minimum Humidity 47    
Precipitation  
Precipitation 0.00 in - - ()
Sea Level Pressure  
Sea Level Pressure 30.13 in    
Wind  
Wind Speed 10 mph ()    
Max Wind Speed 16 mph    
Max Gust Speed -    
Visibility 5.6 miles    
Events      
Averages and records for this station are not official NWS values.
T = Trace of Precipitation, MM = Missing Value Source: Averaged Metar Reports

Daily Weather History Graph

Daily Weather History Graph

Search for Another Location

Airport or City:

Astronomy

Oct. 06, 2012 Rise Set
Actual Time 7:10 AM EEST 6:41 PM EEST
Civil Twilight 6:42 AM EEST 7:09 PM EEST
Nautical Twilight 6:10 AM EEST 7:40 PM EEST
Astronomical Twilight 5:38 AM EEST 8:12 PM EEST
Moon 10:37 PM EEST (10/6) 12:52 PM EEST (10/6)
Length of Visible Light 12h 26m
Length of Day
11h 31m
Waning Gibbous, 68% of the Moon is Illuminated
Oct 6
Waning Gibbous
Oct 8
Last Quarter
Oct 15
New
Oct 22
First Quarter
Oct 29
Full

Hourly Weather History & Observations

Time (EEST) Temp. Dew Point Humidity Pressure Visibility Wind Dir Wind Speed Gust Speed Precip Events Conditions
12:20 AM 62.6 °F 62.6 °F 100% 30.12 in - NE 9.2 mph - N/A   Clear
12:50 AM 62.6 °F 62.6 °F 100% 30.12 in - NNE 10.4 mph - N/A   Clear
1:20 AM 62.6 °F 62.6 °F 100% 30.12 in - NNE 10.4 mph - N/A   Clear
1:50 AM 62.6 °F 62.6 °F 100% 30.12 in - NNE 9.2 mph - N/A   Clear
2:20 AM 62.6 °F 60.8 °F 94% 30.12 in - NNE 9.2 mph - N/A   Clear
3:20 AM 60.8 °F 60.8 °F 100% 30.12 in - NNE 8.1 mph - N/A   Clear
3:50 AM 60.8 °F 60.8 °F 100% 30.12 in - NNE 8.1 mph - N/A   Clear
4:20 AM 62.6 °F 60.8 °F 94% 30.12 in - NNE 9.2 mph - N/A   Clear
5:20 AM 62.6 °F 60.8 °F 94% 30.12 in - NNE 10.4 mph - N/A   Clear
5:50 AM 62.6 °F 60.8 °F 94% 30.15 in - NNE 9.2 mph - N/A   Clear
6:20 AM 62.6 °F 62.6 °F 100% 30.15 in 5.0 mi NNE 10.4 mph - N/A   Unknown
7:20 AM 62.6 °F 60.8 °F 94% 30.15 in 3.7 mi NNE 10.4 mph - N/A   Unknown
7:50 AM 62.6 °F 60.8 °F 94% 30.18 in 3.7 mi North 8.1 mph - N/A   Unknown
8:20 AM 64.4 °F 62.6 °F 94% 30.18 in 4.3 mi NNE 10.4 mph - N/A   Unknown
8:50 AM 66.2 °F 64.4 °F 94% 30.18 in 5.0 mi North 10.4 mph - N/A   Unknown
9:20 AM 68.0 °F 64.4 °F 88% 30.18 in 5.0 mi NNE 11.5 mph - N/A   Unknown
9:50 AM 69.8 °F 64.4 °F 83% 30.18 in 6.2 mi NE 12.7 mph - N/A   Partly Cloudy
10:20 AM 71.6 °F 64.4 °F 78% 30.18 in 6.2 mi NE 12.7 mph - N/A   Scattered Clouds
10:50 AM 73.4 °F 62.6 °F 69% 30.18 in 6.2 mi NE 13.8 mph - N/A   Scattered Clouds
11:20 AM 73.4 °F 60.8 °F 65% 30.18 in 6.2 mi ENE 11.5 mph - N/A   Scattered Clouds
11:50 AM 75.2 °F 60.8 °F 61% 30.15 in 6.2 mi NE 12.7 mph - N/A   Scattered Clouds
12:20 PM 75.2 °F 60.8 °F 61% 30.15 in 6.2 mi NE 12.7 mph - N/A   Scattered Clouds
12:50 PM 77.0 °F 59.0 °F 54% 30.15 in 6.2 mi NE 11.5 mph - N/A   Scattered Clouds
1:20 PM 77.0 °F 59.0 °F 54% 30.15 in 6.2 mi NNE 15.0 mph - N/A   Scattered Clouds
2:20 PM 77.0 °F 57.2 °F 50% 30.12 in 6.2 mi NE 13.8 mph - N/A   Scattered Clouds
2:50 PM 77.0 °F 55.4 °F 47% 30.12 in 6.2 mi ENE 13.8 mph - N/A   Partly Cloudy
3:20 PM 77.0 °F 55.4 °F 47% 30.12 in 6.2 mi NE 13.8 mph - N/A   Partly Cloudy
3:50 PM 77.0 °F 55.4 °F 47% 30.12 in 6.2 mi NE 15.0 mph - N/A   Partly Cloudy
4:20 PM 75.2 °F 57.2 °F 53% 30.12 in 6.2 mi NE 15.0 mph - N/A   Partly Cloudy
4:50 PM 75.2 °F 57.2 °F 53% 30.12 in - NNE 16.1 mph - N/A   Clear
5:20 PM 73.4 °F 57.2 °F 57% 30.12 in - NNE 15.0 mph - N/A   Clear
5:50 PM 71.6 °F 59.0 °F 64% 30.12 in - NE 15.0 mph - N/A   Clear
6:20 PM 69.8 °F 59.0 °F 68% 30.12 in - NE 12.7 mph - N/A   Clear
6:50 PM 68.0 °F 59.0 °F 73% 30.12 in - NE 12.7 mph - N/A   Clear
7:20 PM 66.2 °F 60.8 °F 83% 30.12 in - NE 12.7 mph - N/A   Clear
7:50 PM 66.2 °F 60.8 °F 83% 30.12 in - NE 12.7 mph - N/A   Clear
8:20 PM 64.4 °F 60.8 °F 88% 30.12 in - NE 12.7 mph - N/A   Clear
8:50 PM 64.4 °F 60.8 °F 88% 30.12 in - NNE 12.7 mph - N/A   Clear
9:20 PM 62.6 °F 60.8 °F 94% 30.12 in - NE 12.7 mph - N/A   Clear
9:50 PM 62.6 °F 60.8 °F 94% 30.12 in - NE 11.5 mph - N/A   Clear
10:20 PM 62.6 °F 60.8 °F 94% 30.12 in - NE 11.5 mph - N/A   Clear
10:50 PM 62.6 °F 60.8 °F 94% 30.12 in - ENE 10.4 mph - N/A   Clear
11:20 PM 62.6 °F 60.8 °F 94% 30.09 in - NE 9.2 mph - N/A   Clear
11:50 PM 60.8 °F 60.8 °F 100% 30.09 in - NE 10.4 mph - N/A   Clear